Satellite-Ground Cal/Val Region Overpasses Predictions

Prediction of Satellite NPP Overpassing Cal/Val Region: PacNW

Region Location: (Latitude: 10.00, Longitude: 139.50) to (Latitude: 22.70, Longitude: 165.60).

Table of predicted overpasses for the next 14.0 days since TLE Epoch: 7/17/2015
Interval Starting Time Starting Location Ending Time Ending Location
1 07/17/2015 15:09:07 ( 22.68, 158.66) 07/17/2015 15:12:42 ( 10.06, 155.66)
2 07/18/2015 02:18:57 ( 12.67, 165.59) 07/18/2015 02:21:47 ( 22.65, 163.20)
3 07/18/2015 03:59:42 ( 10.03, 140.82) 07/18/2015 04:01:19 ( 15.73, 139.50)
4 07/18/2015 14:50:05 ( 22.67, 163.41) 07/18/2015 14:53:40 ( 10.05, 160.42)
5 07/19/2015 03:40:40 ( 10.04, 145.58) 07/19/2015 03:44:15 ( 22.67, 142.58)
6 07/19/2015 14:34:06 ( 11.86, 165.59) 07/19/2015 14:34:37 ( 10.04, 165.17)
7 07/19/2015 16:12:32 ( 22.65, 142.79) 07/19/2015 16:16:07 ( 10.03, 139.79)
8 07/20/2015 03:21:37 ( 10.05, 150.33) 07/20/2015 03:25:12 ( 22.68, 147.33)
9 07/20/2015 15:53:29 ( 22.70, 147.56) 07/20/2015 15:57:05 ( 10.02, 144.55)
10 07/21/2015 03:02:34 ( 10.01, 155.10) 07/21/2015 03:06:10 ( 22.69, 152.09)
11 07/21/2015 15:34:27 ( 22.69, 152.31) 07/21/2015 15:38:03 ( 10.01, 149.31)
12 07/22/2015 02:43:31 ( 10.02, 159.85) 07/22/2015 02:47:06 ( 22.64, 156.86)
13 07/22/2015 15:15:24 ( 22.68, 157.07) 07/22/2015 15:18:59 ( 10.06, 154.07)
14 07/23/2015 02:24:29 ( 10.03, 164.61) 07/23/2015 02:28:04 ( 22.66, 161.61)
15 07/23/2015 14:56:22 ( 22.67, 161.82) 07/23/2015 14:59:57 ( 10.05, 158.83)
16 07/24/2015 03:46:56 ( 10.05, 143.99) 07/24/2015 03:50:31 ( 22.68, 140.99)
17 07/24/2015 14:38:28 ( 18.61, 165.59) 07/24/2015 14:40:54 ( 10.04, 163.58)
18 07/24/2015 16:18:49 ( 22.65, 141.20) 07/24/2015 16:20:48 ( 15.67, 139.51)
19 07/25/2015 03:27:53 ( 10.01, 148.76) 07/25/2015 03:31:29 ( 22.69, 145.75)
20 07/25/2015 15:59:46 ( 22.69, 145.97) 07/25/2015 16:03:22 ( 10.01, 142.96)
21 07/26/2015 03:08:50 ( 10.02, 153.51) 07/26/2015 03:12:25 ( 22.64, 150.51)
22 07/26/2015 15:40:43 ( 22.68, 150.73) 07/26/2015 15:44:19 ( 10.00, 147.72)
23 07/27/2015 02:49:48 ( 10.03, 158.26) 07/27/2015 02:53:23 ( 22.66, 155.27)
24 07/27/2015 15:21:41 ( 22.67, 155.48) 07/27/2015 15:25:16 ( 10.05, 152.49)
25 07/28/2015 02:30:45 ( 10.05, 163.02) 07/28/2015 02:34:20 ( 22.67, 160.02)
26 07/28/2015 15:02:38 ( 22.66, 160.24) 07/28/2015 15:06:13 ( 10.04, 157.24)
27 07/29/2015 02:14:22 ( 19.40, 165.59) 07/29/2015 02:15:18 ( 22.69, 164.78)
28 07/29/2015 03:53:12 ( 10.01, 142.41) 07/29/2015 03:56:41 ( 22.29, 139.50)
29 07/29/2015 14:43:36 ( 22.64, 164.99) 07/29/2015 14:47:11 ( 10.02, 162.00)
30 07/29/2015 16:25:05 ( 22.69, 139.63) 07/29/2015 16:25:13 ( 22.22, 139.51)
31 07/30/2015 03:34:10 ( 10.03, 147.17) 07/30/2015 03:37:45 ( 22.65, 144.17)
32 07/30/2015 16:06:02 ( 22.68, 144.38) 07/30/2015 16:09:37 ( 10.06, 141.39)


NCC Satellite Cal/Val Overpasses Prediction Service
